Volver al catálogo

EINSTEIN PROBE

ActivoCienciaVLEO
NORAD 58753·PAYLOAD·🇨🇳 China

Lanzado Jan 9, 2024 desde Xichang Satellite Launch Center

Loading…

Próximos Pases (próximas 24 horas)

TLE

ActualizadoSource: Space-Track

Época: Sep 14, 2026, 14:28 UTC

1 58753U 24007A   26257.60316126  .00002218  00000-0  15274-3 0  9993
2 58753  29.0004 351.7402 0009748  73.0979 287.0688 15.02248017147023

Sigue EINSTEIN PROBE en tiempo real con AllMySat

Download on the App Store